Location: Newark
(45.9456°N, 15.4064°E)
Time: 04:53:38
(UTC+00:00)

SR - Pass Details

Date: 03 February 2020
Orbit: 575 x 881 km, 66.7° (Epoch: 16 February)

Event Time Altitude Azimuth Distance (km) Brightness Sun altitude
Rises 19:58:25 0° 236° (SW) 3,441 ? -40.3°
Reaches altitude 10° 20:01:01 10° 243° (WSW) 2,524 ? -40.7°
Enters shadow 20:02:27 17° 250° (WSW) 2,058 ? -40.9°
Maximum altitude 20:06:35 41° 313° (NW) 1,257 - -41.6°
Drops below altitude 10° 20:12:08 10° 23° (NNE) 2,521 - -42.5°
Sets 20:14:45 0° 31° (NNE) 3,436 - -42.9°
